EZY89HN LGIR-EGPH

Flight info

Callsign EZY89HN
Flight time N/A
Altitude 34000
Route EPALO M749 DIRMI UL613 XANIS DCT DIMIS DCT UNDER DCT BIGLO DCT EMKES DCT EDALA/N0445F360 DCT KOMAR DCT PIXAL DCT PODET DCT SIMBA DCT GASKA DCT MASEK DCT MAPOX DCT BIGGE DCT SONEB DCT GODOS DCT AGPED
Aircraft A320/M-SDE2E3FGHIJ1RWXYZ/LB1

Departure

Time 2026-04-28 19:03
Airport Heraklion International Nikos Kazantzakis Airport (LGIR)

Arrival

Time N/A
Airport Edinburgh Airport (EGPH)
Time Latitude Longitude Altitude Speed Heading
2026-04-28 18:34 35.33898 25.17052 166 ft 0 kts 315°
2026-04-28 18:58 35.33917 25.17048 69 ft 9 kts
2026-04-28 18:58 35.33939 25.17106 106 ft 11 kts 94°
2026-04-28 18:59 35.33928 25.17264 90 ft 21 kts 95°
2026-04-28 18:59 35.33917 25.17430 90 ft 18 kts 95°
2026-04-28 18:59 35.33906 25.17590 91 ft 20 kts 94°
2026-04-28 18:59 35.33898 25.17746 92 ft 17 kts 92°
2026-04-28 19:00 35.33886 25.17879 93 ft 15 kts 96°
2026-04-28 19:00 35.33876 25.18009 91 ft 15 kts 95°
2026-04-28 19:00 35.33867 25.18140 94 ft 18 kts 94°
2026-04-28 19:00 35.33858 25.18280 92 ft 15 kts 95°
2026-04-28 19:01 35.33846 25.18442 90 ft 21 kts 95°
2026-04-28 19:01 35.33834 25.18620 90 ft 21 kts 95°
2026-04-28 19:01 35.33823 25.18793 90 ft 20 kts 93°
2026-04-28 19:01 35.33829 25.18944 91 ft 17 kts 61°
2026-04-28 19:02 35.33904 25.18998 90 ft 14 kts 304°
2026-04-28 19:02 35.33912 25.18949 87 ft 0 kts 275°
2026-04-28 19:02 35.33923 25.18785 89 ft 52 kts 275°
2026-04-28 19:03 35.33973 25.18064 93 ft 115 kts 275°
2026-04-28 19:03 35.34056 25.16882 127 ft 159 kts 276°
2026-04-28 19:03 35.34154 25.15521 743 ft 162 kts 277°
2026-04-28 19:03 35.34597 25.14289 1400 ft 164 kts 322°
2026-04-28 19:04 35.35693 25.13754 1783 ft 180 kts 346°
2026-04-28 19:04 35.36984 25.13356 1992 ft 203 kts 345°
2026-04-28 19:04 35.38422 25.12888 2232 ft 226 kts 345°
2026-04-28 19:04 35.40012 25.12352 2611 ft 246 kts 344°
2026-04-28 19:05 35.41686 25.11776 3319 ft 252 kts 344°
2026-04-28 19:05 35.43377 25.11185 4101 ft 255 kts 344°
2026-04-28 19:05 35.45091 25.10579 4890 ft 257 kts 344°
2026-04-28 19:05 35.46821 25.09964 5649 ft 260 kts 344°
2026-04-28 19:06 35.48569 25.09337 6391 ft 264 kts 344°
2026-04-28 19:06 35.49741 25.08915 6851 ft 266 kts 344°
2026-04-28 19:06 35.52135 25.08050 7783 ft 270 kts 343°
2026-04-28 19:06 35.53953 25.07395 8474 ft 274 kts 343°
2026-04-28 19:07 35.55794 25.06732 9152 ft 278 kts 343°
2026-04-28 19:07 35.57655 25.06060 9847 ft 281 kts 343°
2026-04-28 19:07 35.59551 25.05376 10351 ft 291 kts 343°
2026-04-28 19:07 35.61567 25.04646 10491 ft 313 kts 343°
2026-04-28 19:08 35.63692 25.03875 10709 ft 330 kts 343°
2026-04-28 19:08 35.65919 25.03066 11232 ft 336 kts 343°
2026-04-28 19:08 35.68176 25.02250 11842 ft 340 kts 343°
2026-04-28 19:08 35.70456 25.01424 12456 ft 343 kts 343°
2026-04-28 19:09 35.72744 25.00550 13056 ft 346 kts 341°
2026-04-28 19:09 35.75023 24.99549 13641 ft 350 kts 339°
2026-04-28 19:09 35.77305 24.98466 14189 ft 353 kts 338°
2026-04-28 19:09 35.79594 24.97347 14725 ft 355 kts 338°
2026-04-28 19:10 35.81901 24.96216 15262 ft 358 kts 338°
2026-04-28 19:10 35.84227 24.95089 15798 ft 360 kts 338°
2026-04-28 19:10 35.86572 24.93966 16337 ft 363 kts 338°
2026-04-28 19:10 35.88936 24.92846 16866 ft 365 kts 338°
2026-04-28 19:11 35.91318 24.91724 17399 ft 368 kts 338°
2026-04-28 19:11 35.93716 24.90596 17917 ft 370 kts 338°
2026-04-28 19:11 35.96129 24.89462 18423 ft 372 kts 338°
2026-04-28 19:11 35.98558 24.88316 18871 ft 375 kts 338°
2026-04-28 19:12 36.00998 24.87164 19301 ft 377 kts 338°
2026-04-28 19:12 36.03452 24.86002 19739 ft 379 kts 338°
2026-04-28 19:12 36.05832 24.84598 20156 ft 380 kts 328°
2026-04-28 19:12 36.07970 24.82666 20571 ft 382 kts 321°
2026-04-28 19:13 36.10048 24.80606 21002 ft 384 kts 321°
2026-04-28 19:13 36.12133 24.78530 21425 ft 386 kts 321°
2026-04-28 19:13 36.14229 24.76444 21831 ft 388 kts 321°
2026-04-28 19:13 36.16338 24.74348 22238 ft 390 kts 321°
2026-04-28 19:14 36.18456 24.72241 22639 ft 392 kts 321°
2026-04-28 19:14 36.20588 24.70120 23031 ft 394 kts 321°
2026-04-28 19:14 36.22731 24.67989 23421 ft 396 kts 321°
2026-04-28 19:14 36.24884 24.65847 23763 ft 399 kts 320°
2026-04-28 19:15 36.27053 24.63689 24052 ft 401 kts 320°
2026-04-28 19:15 36.29232 24.61517 24376 ft 403 kts 320°
2026-04-28 19:15 36.31421 24.59339 24687 ft 405 kts 320°
2026-04-28 19:15 36.32164 24.58601 24788 ft 405 kts 320°
2026-04-28 19:16 36.35826 24.54951 25302 ft 408 kts 320°
2026-04-28 19:16 36.38038 24.52740 25601 ft 409 kts 320°
2026-04-28 19:16 36.40256 24.50514 25906 ft 411 kts 320°
2026-04-28 19:16 36.42480 24.48282 26204 ft 412 kts 320°
2026-04-28 19:17 36.44717 24.46039 26501 ft 414 kts 320°
2026-04-28 19:17 36.46961 24.43789 26784 ft 415 kts 320°
2026-04-28 19:17 36.49214 24.41529 27077 ft 417 kts 320°
2026-04-28 19:17 36.51474 24.39262 27357 ft 419 kts 320°
2026-04-28 19:18 36.53745 24.36983 27634 ft 420 kts 320°
2026-04-28 19:18 36.55251 24.35468 27835 ft 421 kts 320°
2026-04-28 19:18 36.57534 24.33170 28110 ft 423 kts 320°
2026-04-28 19:18 36.59823 24.30864 28378 ft 424 kts 320°
2026-04-28 19:19 36.62121 24.28546 28648 ft 426 kts 320°
2026-04-28 19:19 36.64426 24.26221 28895 ft 428 kts 320°
2026-04-28 19:19 36.66742 24.23885 29126 ft 429 kts 320°
2026-04-28 19:19 36.69067 24.21540 29371 ft 431 kts 320°
2026-04-28 19:20 36.71400 24.19187 29589 ft 433 kts 320°
2026-04-28 19:20 36.73744 24.16819 29815 ft 434 kts 320°
2026-04-28 19:20 36.76088 24.14444 30093 ft 434 kts 320°
2026-04-28 19:20 36.78431 24.12069 30395 ft 433 kts 320°
2026-04-28 19:21 36.80767 24.09699 30680 ft 432 kts 320°
2026-04-28 19:21 36.83094 24.07332 30967 ft 431 kts 320°
2026-04-28 19:21 36.85417 24.04967 31248 ft 430 kts 320°
2026-04-28 19:21 36.87729 24.02611 31538 ft 429 kts 320°
2026-04-28 19:22 36.90013 24.00286 31805 ft 428 kts 320°
2026-04-28 19:22 36.91572 23.98698 31998 ft 428 kts 320°
2026-04-28 19:22 36.94623 23.95593 32378 ft 426 kts 320°
2026-04-28 19:22 36.96950 23.93225 32663 ft 425 kts 320°
2026-04-28 19:23 36.99210 23.90925 32935 ft 424 kts 319°
2026-04-28 19:23 37.01496 23.88597 33209 ft 423 kts 319°
2026-04-28 19:23 37.03775 23.86270 33480 ft 422 kts 319°
2026-04-28 19:23 37.06048 23.83946 33759 ft 421 kts 319°
2026-04-28 19:24 37.08315 23.81626 34017 ft 421 kts 319°
2026-04-28 19:24 37.10578 23.79307 34095 ft 418 kts 319°
2026-04-28 19:24 37.15062 23.74713 34101 ft 415 kts 319°
2026-04-28 19:25 37.19537 23.70127 34110 ft 415 kts 319°
2026-04-28 19:25 37.24005 23.65538 34107 ft 415 kts 319°
2026-04-28 19:26 37.28469 23.60931 34106 ft 415 kts 319°
2026-04-28 19:26 37.32931 23.56314 34108 ft 416 kts 319°
2026-04-28 19:27 37.37399 23.51696 34107 ft 416 kts 319°
2026-04-28 19:27 37.41871 23.47070 34111 ft 416 kts 319°
2026-04-28 19:28 37.46342 23.42438 34114 ft 416 kts 319°
2026-04-28 19:28 37.50812 23.37800 34112 ft 417 kts 319°
2026-04-28 19:29 37.54534 23.33938 34109 ft 417 kts 319°
2026-04-28 19:29 37.59759 23.28496 34114 ft 417 kts 319°
2026-04-28 19:30 37.64231 23.23838 34111 ft 417 kts 319°
2026-04-28 19:30 37.68702 23.19168 34113 ft 417 kts 319°
2026-04-28 19:31 37.73141 23.14523 34111 ft 417 kts 319°
2026-04-28 19:31 37.77612 23.09832 34112 ft 418 kts 319°
2026-04-28 19:32 37.82081 23.05139 34119 ft 418 kts 319°
2026-04-28 19:32 37.86551 23.00434 34116 ft 418 kts 319°
2026-04-28 19:33 37.91020 22.95728 34111 ft 418 kts 319°
2026-04-28 19:33 37.95441 22.90954 34113 ft 417 kts 317°
2026-04-28 19:34 37.99713 22.85972 34110 ft 417 kts 316°
2026-04-28 19:34 38.03946 22.80942 34114 ft 417 kts 316°
2026-04-28 19:35 38.08200 22.75946 34112 ft 417 kts 316°
2026-04-28 19:35 38.12478 22.70976 34111 ft 417 kts 316°
2026-04-28 19:36 38.16758 22.66018 34109 ft 416 kts 316°
2026-04-28 19:36 38.21029 22.61053 34110 ft 416 kts 316°
2026-04-28 19:37 38.24578 22.56926 34108 ft 416 kts 316°
2026-04-28 19:37 38.29560 22.51113 34109 ft 416 kts 316°
2026-04-28 19:38 38.33813 22.46130 34107 ft 415 kts 316°
2026-04-28 19:38 38.38064 22.41142 34110 ft 415 kts 316°
2026-04-28 19:39 38.42315 22.36152 34107 ft 415 kts 316°
2026-04-28 19:39 38.46565 22.31158 34113 ft 415 kts 316°
2026-04-28 19:40 38.50815 22.26156 34112 ft 416 kts 316°
2026-04-28 19:40 38.55061 22.21146 34118 ft 416 kts 316°
2026-04-28 19:41 38.59356 22.16198 34122 ft 416 kts 319°
2026-04-28 19:41 38.63864 22.11553 34127 ft 416 kts 321°
2026-04-28 19:42 38.68395 22.07017 34125 ft 416 kts 320°
2026-04-28 19:42 38.72197 22.03146 34131 ft 416 kts 320°
2026-04-28 19:43 38.77421 21.97714 34134 ft 416 kts 319°
2026-04-28 19:43 38.81908 21.93025 34119 ft 416 kts 320°
2026-04-28 19:44 38.86404 21.88336 34116 ft 417 kts 320°
2026-04-28 19:44 38.90907 21.83647 34118 ft 417 kts 320°
2026-04-28 19:45 38.95411 21.78954 34119 ft 417 kts 320°
2026-04-28 19:45 38.99908 21.74253 34122 ft 417 kts 320°
2026-04-28 19:46 39.04404 21.69545 34118 ft 417 kts 320°
2026-04-28 19:46 39.08890 21.64828 34120 ft 416 kts 320°
2026-04-28 19:47 39.13371 21.60108 34116 ft 416 kts 320°
2026-04-28 19:47 39.17849 21.55383 34116 ft 416 kts 320°
2026-04-28 19:48 39.22330 21.50661 34113 ft 416 kts 320°
2026-04-28 19:48 39.26806 21.45923 34116 ft 416 kts 320°
2026-04-28 19:49 39.31281 21.41182 34119 ft 416 kts 320°
2026-04-28 19:49 39.35753 21.36445 34121 ft 416 kts 320°
2026-04-28 19:50 39.42457 21.29319 34124 ft 416 kts 319°
2026-04-28 19:51 39.46919 21.24559 34128 ft 416 kts 319°
2026-04-28 19:51 39.51382 21.19799 34132 ft 416 kts 319°
2026-04-28 19:52 39.55843 21.15039 34138 ft 415 kts 319°
2026-04-28 19:52 39.60298 21.10271 34138 ft 415 kts 319°
2026-04-28 19:53 39.64741 21.05498 34139 ft 415 kts 319°
2026-04-28 19:53 39.69153 21.00758 34139 ft 414 kts 319°
2026-04-28 19:54 39.73593 20.95981 34138 ft 414 kts 319°
2026-04-28 19:54 39.78025 20.91197 34135 ft 414 kts 319°
2026-04-28 19:55 39.82459 20.86409 34132 ft 414 kts 319°
2026-04-28 19:55 39.86891 20.81620 34125 ft 414 kts 319°
2026-04-28 19:56 39.91317 20.76825 34122 ft 414 kts 319°
2026-04-28 19:56 39.95735 20.72021 34121 ft 414 kts 319°
2026-04-28 19:57 40.00152 20.67214 34109 ft 413 kts 319°
2026-04-28 19:57 40.04564 20.62407 34101 ft 413 kts 319°
2026-04-28 19:58 40.09287 20.58160 34097 ft 415 kts 332°
2026-04-28 19:58 40.14479 20.54852 34089 ft 415 kts 332°
2026-04-28 19:59 40.19623 20.51552 34091 ft 415 kts 332°
2026-04-28 19:59 40.24781 20.48073 34092 ft 414 kts 329°
2026-04-28 20:00 40.29787 20.44365 34088 ft 413 kts 328°
2026-04-28 20:00 40.34736 20.40645 34089 ft 413 kts 328°
2026-04-28 20:01 40.39732 20.36930 34087 ft 413 kts 329°
2026-04-28 20:01 40.44741 20.33250 34085 ft 412 kts 329°
2026-04-28 20:02 40.49746 20.29574 34084 ft 412 kts 329°
2026-04-28 20:02 40.54742 20.25880 34085 ft 412 kts 329°
2026-04-28 20:03 40.59739 20.22178 34084 ft 412 kts 329°
2026-04-28 20:03 40.64733 20.18479 34083 ft 412 kts 329°
2026-04-28 20:04 40.69721 20.14778 34082 ft 411 kts 329°
2026-04-28 20:04 40.74703 20.11064 34080 ft 411 kts 328°
2026-04-28 20:05 40.79672 20.07338 34083 ft 411 kts 328°
2026-04-28 20:05 40.84646 20.03628 34084 ft 411 kts 328°
2026-04-28 20:06 40.89622 19.99919 34084 ft 411 kts 328°
2026-04-28 20:06 40.93751 19.96823 34077 ft 410 kts 328°
2026-04-28 20:07 40.98716 19.93098 34082 ft 410 kts 328°
2026-04-28 20:07 41.03681 19.89365 34080 ft 410 kts 328°
2026-04-28 20:08 41.08639 19.85621 34086 ft 410 kts 328°
2026-04-28 20:08 41.13591 19.81872 34092 ft 410 kts 328°
2026-04-28 20:09 41.18550 19.78134 34100 ft 410 kts 328°
2026-04-28 20:09 41.23499 19.74392 34106 ft 409 kts 328°
2026-04-28 20:10 41.28442 19.70641 34111 ft 409 kts 328°
2026-04-28 20:10 41.33376 19.66887 34115 ft 408 kts 328°
2026-04-28 20:11 41.38301 19.63131 34116 ft 408 kts 328°
2026-04-28 20:11 41.43223 19.59378 34113 ft 407 kts 328°
2026-04-28 20:12 41.48139 19.55633 34108 ft 407 kts 328°
2026-04-28 20:12 41.53044 19.51879 34097 ft 406 kts 328°
2026-04-28 20:13 41.57940 19.48116 34093 ft 406 kts 328°
2026-04-28 20:13 41.62832 19.44353 34079 ft 406 kts 328°
2026-04-28 20:14 41.67725 19.40598 34067 ft 405 kts 328°
2026-04-28 20:14 41.72611 19.36831 34077 ft 405 kts 328°
2026-04-28 20:15 41.77494 19.33057 34076 ft 405 kts 328°
2026-04-28 20:15 41.82376 19.29284 34077 ft 405 kts 328°
2026-04-28 20:16 41.87259 19.25509 34065 ft 405 kts 328°
2026-04-28 20:16 41.92135 19.21722 34069 ft 405 kts 328°
2026-04-28 20:17 41.97009 19.17920 34077 ft 405 kts 328°
2026-04-28 20:17 42.01881 19.14124 34077 ft 405 kts 328°
2026-04-28 20:18 42.06757 19.10331 34080 ft 405 kts 328°
2026-04-28 20:18 42.11592 19.06556 34076 ft 404 kts 327°
2026-04-28 20:19 42.16456 19.02739 34075 ft 404 kts 327°
2026-04-28 20:19 42.21317 18.98923 34080 ft 404 kts 327°
2026-04-28 20:20 42.26174 18.95110 34073 ft 404 kts 327°
2026-04-28 20:20 42.31031 18.91289 34082 ft 404 kts 327°
2026-04-28 20:21 42.35879 18.87458 34083 ft 404 kts 327°
2026-04-28 20:21 42.40726 18.83624 34089 ft 404 kts 327°
2026-04-28 20:22 42.45576 18.79778 34095 ft 404 kts 327°
2026-04-28 20:22 42.50421 18.75932 34096 ft 403 kts 327°
2026-04-28 20:23 42.55260 18.72090 34094 ft 403 kts 327°
2026-04-28 20:23 42.60099 18.68250 34097 ft 403 kts 327°
2026-04-28 20:24 42.64926 18.64398 34094 ft 402 kts 327°
2026-04-28 20:24 42.69745 18.60541 34101 ft 402 kts 327°
2026-04-28 20:25 42.74559 18.56694 34106 ft 401 kts 327°
2026-04-28 20:25 42.79369 18.52845 34108 ft 400 kts 327°
2026-04-28 20:26 42.84170 18.48987 34110 ft 400 kts 327°
2026-04-28 20:26 42.88958 18.45128 34113 ft 400 kts 327°
2026-04-28 20:27 42.93744 18.41265 34117 ft 399 kts 327°
2026-04-28 20:27 42.98524 18.37403 34119 ft 399 kts 327°
2026-04-28 20:28 43.03297 18.33545 34121 ft 398 kts 327°
2026-04-28 20:28 43.08059 18.29678 34124 ft 398 kts 327°
2026-04-28 20:29 43.12817 18.25817 34116 ft 397 kts 327°
2026-04-28 20:29 43.17570 18.21961 34104 ft 397 kts 327°
2026-04-28 20:30 43.22312 18.18095 34096 ft 396 kts 327°
2026-04-28 20:30 43.27049 18.14227 34089 ft 396 kts 327°
2026-04-28 20:31 43.31780 18.10351 34081 ft 396 kts 326°
2026-04-28 20:31 43.36506 18.06482 34080 ft 395 kts 326°
2026-04-28 20:32 43.41229 18.02604 34076 ft 395 kts 326°
2026-04-28 20:32 43.45949 17.98719 34075 ft 395 kts 326°
2026-04-28 20:33 43.50660 17.94833 34080 ft 395 kts 326°
2026-04-28 20:33 43.55369 17.90941 34085 ft 394 kts 326°
2026-04-28 20:34 43.60075 17.87049 34097 ft 395 kts 326°
2026-04-28 20:34 43.64783 17.83156 34106 ft 394 kts 326°
2026-04-28 20:35 43.69481 17.79253 34102 ft 394 kts 326°
2026-04-28 20:35 43.74174 17.75346 34101 ft 394 kts 326°
2026-04-28 20:36 43.78866 17.71440 34099 ft 393 kts 326°
2026-04-28 20:36 43.83550 17.67529 34107 ft 393 kts 326°
2026-04-28 20:37 43.88197 17.63641 34108 ft 393 kts 326°
2026-04-28 20:37 43.92874 17.59726 34106 ft 393 kts 326°
2026-04-28 20:38 43.97544 17.55804 34105 ft 392 kts 326°
2026-04-28 20:38 44.02216 17.51876 34113 ft 392 kts 326°
2026-04-28 20:39 44.06885 17.47946 34118 ft 392 kts 326°
2026-04-28 20:39 44.11548 17.44007 34124 ft 392 kts 326°
2026-04-28 20:40 44.16197 17.40060 34129 ft 391 kts 326°
2026-04-28 20:40 44.20845 17.36116 34129 ft 391 kts 326°
2026-04-28 20:41 44.25494 17.32181 34131 ft 391 kts 326°
2026-04-28 20:41 44.30137 17.28244 34130 ft 390 kts 326°
2026-04-28 20:42 44.34769 17.24290 34126 ft 390 kts 326°
2026-04-28 20:42 44.39400 17.20334 34128 ft 390 kts 326°
2026-04-28 20:43 44.44025 17.16377 34123 ft 390 kts 325°
2026-04-28 20:43 44.48648 17.12411 34119 ft 389 kts 325°
2026-04-28 20:44 44.53268 17.08445 34119 ft 389 kts 325°
2026-04-28 20:44 44.57889 17.04473 34118 ft 390 kts 325°
2026-04-28 20:45 44.62505 17.00492 34118 ft 389 kts 325°
2026-04-28 20:45 44.67120 16.96503 34123 ft 389 kts 325°
2026-04-28 20:46 44.71731 16.92507 34123 ft 389 kts 325°
2026-04-28 20:46 44.76314 16.88538 34125 ft 389 kts 325°
2026-04-28 20:47 44.80924 16.84537 34131 ft 389 kts 325°
2026-04-28 20:47 44.85532 16.80543 34132 ft 389 kts 325°
2026-04-28 20:48 44.90133 16.76530 34136 ft 389 kts 324°
2026-04-28 20:48 44.94729 16.72512 34137 ft 388 kts 324°
2026-04-28 20:49 44.99319 16.68497 34138 ft 388 kts 324°
2026-04-28 20:49 45.03903 16.64475 34137 ft 388 kts 324°
2026-04-28 20:50 45.08480 16.60449 34142 ft 387 kts 324°
2026-04-28 20:50 45.13055 16.56425 34139 ft 387 kts 324°
2026-04-28 20:51 45.17621 16.52394 34140 ft 387 kts 324°
2026-04-28 20:51 45.22185 16.48368 34134 ft 386 kts 324°
2026-04-28 20:52 45.26004 16.44995 34136 ft 386 kts 324°
2026-04-28 20:52 45.30552 16.40963 34137 ft 385 kts 324°
2026-04-28 20:53 45.37329 16.34929 34137 ft 385 kts 324°
2026-04-28 20:53 45.41862 16.30893 34141 ft 384 kts 324°
2026-04-28 20:54 45.46390 16.26857 34144 ft 384 kts 324°
2026-04-28 20:54 45.50912 16.22817 34146 ft 383 kts 324°
2026-04-28 20:55 45.55425 16.18772 34149 ft 383 kts 324°
2026-04-28 20:55 45.59936 16.14723 34152 ft 383 kts 324°
2026-04-28 20:56 45.64435 16.10674 34153 ft 382 kts 324°
2026-04-28 20:56 45.68928 16.06630 34155 ft 381 kts 324°
2026-04-28 20:57 45.73412 16.02587 34154 ft 381 kts 324°
2026-04-28 20:57 45.77883 15.98536 34152 ft 380 kts 324°
2026-04-28 20:58 45.82346 15.94490 34154 ft 379 kts 324°
2026-04-28 20:58 45.86798 15.90449 34156 ft 378 kts 324°
2026-04-28 20:59 45.91240 15.86407 34154 ft 378 kts 323°
2026-04-28 20:59 45.95680 15.82353 34168 ft 378 kts 323°
2026-04-28 21:00 46.00117 15.78304 34173 ft 378 kts 323°
2026-04-28 21:00 46.04547 15.74255 34174 ft 377 kts 323°
2026-04-28 21:01 46.08974 15.70205 34179 ft 376 kts 323°
2026-04-28 21:01 46.13385 15.66145 34177 ft 376 kts 323°
2026-04-28 21:02 46.17728 15.61979 34177 ft 373 kts 317°
2026-04-28 21:02 46.21695 15.57186 34175 ft 372 kts 317°
2026-04-28 21:03 46.25666 15.52399 34172 ft 372 kts 317°
2026-04-28 21:03 46.29637 15.47609 34167 ft 371 kts 317°
2026-04-28 21:04 46.33594 15.42810 34170 ft 371 kts 317°
2026-04-28 21:04 46.37541 15.38013 34177 ft 370 kts 317°
2026-04-28 21:05 46.41451 15.33249 34177 ft 369 kts 316°
2026-04-28 21:05 46.45381 15.28462 34180 ft 369 kts 316°
2026-04-28 21:06 46.49306 15.23668 34182 ft 368 kts 316°
2026-04-28 21:06 46.53225 15.18873 34185 ft 368 kts 316°
2026-04-28 21:07 46.57142 15.14075 34190 ft 368 kts 317°
2026-04-28 21:07 46.61050 15.09274 34189 ft 368 kts 317°
2026-04-28 21:08 46.64955 15.04473 34190 ft 367 kts 316°
2026-04-28 21:08 46.68848 14.99672 34189 ft 367 kts 316°
2026-04-28 21:09 46.72742 14.94861 34191 ft 367 kts 316°
2026-04-28 21:09 46.76637 14.90051 34189 ft 367 kts 316°
2026-04-28 21:10 46.80530 14.85227 34224 ft 369 kts 316°
2026-04-28 21:10 46.82493 14.82782 34357 ft 372 kts 316°
2026-04-28 21:10 46.84465 14.80323 34541 ft 373 kts 316°
2026-04-28 21:11 46.86441 14.77857 34740 ft 374 kts 316°
2026-04-28 21:11 46.88418 14.75387 34935 ft 374 kts 316°
2026-04-28 21:11 46.90368 14.72952 35113 ft 374 kts 316°
2026-04-28 21:11 46.92348 14.70482 35300 ft 375 kts 316°
2026-04-28 21:12 46.94331 14.68005 35472 ft 375 kts 316°
2026-04-28 21:12 46.96316 14.65526 35674 ft 375 kts 316°
2026-04-28 21:12 46.98304 14.63044 35847 ft 376 kts 316°
2026-04-28 21:12 47.00293 14.60558 36018 ft 376 kts 316°
2026-04-28 21:13 47.02286 14.58061 36161 ft 377 kts 316°
2026-04-28 21:13 47.04278 14.55556 36194 ft 378 kts 316°
2026-04-28 21:13 47.08262 14.50540 36192 ft 377 kts 316°
2026-04-28 21:14 47.12244 14.45510 36184 ft 378 kts 316°
2026-04-28 21:14 47.16225 14.40472 36181 ft 378 kts 316°
2026-04-28 21:15 47.24507 14.29982 36164 ft 377 kts 316°
2026-04-28 21:16 47.27836 14.25751 36159 ft 378 kts 316°
2026-04-28 21:16 47.31782 14.20730 36153 ft 378 kts 316°
2026-04-28 21:17 47.35783 14.15620 36150 ft 378 kts 316°
2026-04-28 21:17 47.39742 14.10573 36140 ft 379 kts 316°
2026-04-28 21:18 47.43726 14.05475 36137 ft 379 kts 316°
2026-04-28 21:18 47.47704 14.00357 36139 ft 380 kts 316°
2026-04-28 21:19 47.51687 13.95229 36135 ft 380 kts 316°
2026-04-28 21:19 47.55673 13.90084 36135 ft 380 kts 316°
2026-04-28 21:20 47.59657 13.84937 36136 ft 380 kts 315°
2026-04-28 21:20 47.63633 13.79778 36133 ft 380 kts 316°
2026-04-28 21:21 47.67612 13.74617 36135 ft 380 kts 316°
2026-04-28 21:21 47.71592 13.69445 36129 ft 380 kts 316°
2026-04-28 21:22 47.75569 13.64262 36123 ft 380 kts 315°
2026-04-28 21:22 47.79547 13.59074 36123 ft 380 kts 315°
2026-04-28 21:23 47.83528 13.53879 36122 ft 381 kts 315°
2026-04-28 21:23 47.87501 13.48666 36123 ft 381 kts 315°
2026-04-28 21:24 47.91474 13.43435 36128 ft 381 kts 315°
2026-04-28 21:24 47.95451 13.38189 36130 ft 382 kts 315°
2026-04-28 21:25 47.99428 13.32944 36137 ft 382 kts 315°
2026-04-28 21:25 48.03406 13.27690 36135 ft 381 kts 315°
2026-04-28 21:26 48.07346 13.22470 36140 ft 381 kts 315°
2026-04-28 21:26 48.11310 13.17204 36138 ft 381 kts 315°
2026-04-28 21:27 48.15270 13.11934 36140 ft 381 kts 315°
2026-04-28 21:27 48.19228 13.06656 36139 ft 381 kts 315°
2026-04-28 21:28 48.23176 13.01367 36142 ft 381 kts 315°
2026-04-28 21:28 48.27234 12.96253 36143 ft 381 kts 317°
2026-04-28 21:29 48.31392 12.91290 36140 ft 382 kts 318°
2026-04-28 21:29 48.35537 12.86310 36139 ft 381 kts 317°
2026-04-28 21:30 48.39650 12.81276 36142 ft 381 kts 317°
2026-04-28 21:30 48.43750 12.76211 36146 ft 381 kts 317°
2026-04-28 21:31 48.47855 12.71146 36148 ft 381 kts 317°
2026-04-28 21:31 48.51959 12.66076 36155 ft 381 kts 317°
2026-04-28 21:32 48.56061 12.60997 36156 ft 381 kts 317°
2026-04-28 21:32 48.60156 12.55914 36159 ft 381 kts 317°
2026-04-28 21:33 48.64247 12.50826 36160 ft 381 kts 317°
2026-04-28 21:33 48.68332 12.45735 36157 ft 381 kts 317°
2026-04-28 21:34 48.72425 12.40634 36155 ft 381 kts 317°
2026-04-28 21:34 48.76525 12.35527 36159 ft 381 kts 317°
2026-04-28 21:35 48.80615 12.30399 36153 ft 382 kts 316°
2026-04-28 21:35 48.84698 12.25251 36158 ft 382 kts 316°
2026-04-28 21:36 48.88789 12.20088 36160 ft 382 kts 316°
2026-04-28 21:36 48.92856 12.14959 36162 ft 383 kts 316°
2026-04-28 21:37 48.96950 12.09782 36167 ft 383 kts 316°
2026-04-28 21:37 49.01046 12.04592 36176 ft 383 kts 316°
2026-04-28 21:38 49.05143 11.99392 36182 ft 384 kts 316°
2026-04-28 21:38 49.09247 11.94174 36187 ft 384 kts 316°
2026-04-28 21:39 49.13351 11.88952 36191 ft 384 kts 317°
2026-04-28 21:39 49.17452 11.83702 36193 ft 385 kts 316°
2026-04-28 21:40 49.21555 11.78439 36193 ft 385 kts 316°
2026-04-28 21:40 49.25655 11.73160 36197 ft 386 kts 316°
2026-04-28 21:41 49.29763 11.67872 36192 ft 386 kts 316°
2026-04-28 21:41 49.33868 11.62571 36189 ft 386 kts 316°
2026-04-28 21:42 49.37978 11.57250 36188 ft 387 kts 316°
2026-04-28 21:42 49.42094 11.51917 36189 ft 388 kts 317°
2026-04-28 21:43 49.46217 11.46572 36196 ft 388 kts 317°
2026-04-28 21:43 49.50343 11.41201 36198 ft 389 kts 317°
2026-04-28 21:44 49.54469 11.35807 36203 ft 390 kts 317°
2026-04-28 21:44 49.58600 11.30398 36201 ft 390 kts 317°
2026-04-28 21:45 49.62732 11.24972 36200 ft 391 kts 317°
2026-04-28 21:45 49.66876 11.19526 36200 ft 392 kts 317°
2026-04-28 21:46 49.71025 11.14061 36196 ft 392 kts 317°
2026-04-28 21:46 49.75150 11.08615 36199 ft 393 kts 317°
2026-04-28 21:47 49.79309 11.03113 36202 ft 394 kts 317°
2026-04-28 21:47 49.83474 10.97595 36207 ft 394 kts 317°
2026-04-28 21:48 49.87642 10.92050 36213 ft 395 kts 317°
2026-04-28 21:48 49.91815 10.86480 36216 ft 396 kts 317°
2026-04-28 21:49 49.95993 10.80894 36220 ft 397 kts 317°
2026-04-28 21:49 50.00178 10.75291 36226 ft 397 kts 317°
2026-04-28 21:50 50.04368 10.69668 36231 ft 398 kts 317°
2026-04-28 21:50 50.08561 10.64028 36231 ft 399 kts 317°
2026-04-28 21:51 50.12758 10.58370 36234 ft 399 kts 317°
2026-04-28 21:51 50.16963 10.52692 36235 ft 400 kts 317°
2026-04-28 21:52 50.21168 10.46992 36235 ft 401 kts 317°
2026-04-28 21:52 50.25381 10.41264 36237 ft 402 kts 317°
2026-04-28 21:53 50.29604 10.35512 36242 ft 403 kts 317°
2026-04-28 21:53 50.33833 10.29734 36237 ft 404 kts 317°
2026-04-28 21:54 50.37715 10.23385 36243 ft 404 kts 310°
2026-04-28 21:54 50.41430 10.16748 36241 ft 406 kts 310°
2026-04-28 21:55 50.45155 10.10086 36243 ft 407 kts 310°
2026-04-28 21:55 50.48884 10.03389 36250 ft 408 kts 310°
2026-04-28 21:56 50.52621 9.96672 36251 ft 409 kts 311°
2026-04-28 21:56 50.56337 9.89969 36249 ft 410 kts 311°
2026-04-28 21:57 50.60083 9.83195 36253 ft 411 kts 311°
2026-04-28 21:57 50.63836 9.76400 36251 ft 412 kts 311°
2026-04-28 21:58 50.67594 9.69569 36253 ft 413 kts 311°
2026-04-28 21:58 50.71349 9.62696 36252 ft 414 kts 311°
2026-04-28 21:59 50.75096 9.55776 36255 ft 415 kts 310°
2026-04-28 22:00 50.80591 9.45174 36262 ft 416 kts 309°
2026-04-28 22:00 50.84257 9.38070 36267 ft 417 kts 310°
2026-04-28 22:01 50.87942 9.30963 36269 ft 418 kts 310°
2026-04-28 22:01 50.91631 9.23841 36271 ft 419 kts 310°
2026-04-28 22:02 50.95322 9.16686 36273 ft 420 kts 310°
2026-04-28 22:02 50.99014 9.09502 36276 ft 420 kts 310°
2026-04-28 22:03 51.02707 9.02287 36277 ft 421 kts 310°
2026-04-28 22:03 51.05780 8.96276 36273 ft 422 kts 310°
2026-04-28 22:04 51.09479 8.89013 36277 ft 423 kts 310°
2026-04-28 22:04 51.13784 8.80548 36276 ft 424 kts 310°
2026-04-28 22:05 51.16891 8.74433 36280 ft 424 kts 310°
2026-04-28 22:05 51.20598 8.67102 36283 ft 425 kts 310°
2026-04-28 22:06 51.24306 8.59737 36284 ft 426 kts 310°
2026-04-28 22:06 51.28012 8.52354 36290 ft 426 kts 310°
2026-04-28 22:07 51.31717 8.44946 36295 ft 427 kts 310°
2026-04-28 22:07 51.35256 8.37387 36292 ft 428 kts 307°
2026-04-28 22:08 51.38598 8.29483 36292 ft 429 kts 306°
2026-04-28 22:08 51.41922 8.21519 36290 ft 430 kts 306°
2026-04-28 22:09 51.45284 8.13588 36287 ft 430 kts 306°
2026-04-28 22:09 51.48675 8.05674 36286 ft 431 kts 307°
2026-04-28 22:10 51.52063 7.97740 36286 ft 431 kts 306°
2026-04-28 22:10 51.55441 7.89773 36288 ft 432 kts 306°
2026-04-28 22:11 51.58814 7.81789 36288 ft 432 kts 306°
2026-04-28 22:11 51.62186 7.73781 36290 ft 432 kts 306°
2026-04-28 22:12 51.65552 7.65755 36289 ft 433 kts 306°
2026-04-28 22:12 51.68917 7.57716 36290 ft 433 kts 306°
2026-04-28 22:13 51.72260 7.49710 36292 ft 433 kts 306°
2026-04-28 22:13 51.75616 7.41640 36292 ft 433 kts 306°
2026-04-28 22:14 51.78965 7.33560 36291 ft 433 kts 306°
2026-04-28 22:14 51.82310 7.25463 36291 ft 433 kts 306°
2026-04-28 22:15 51.85650 7.17350 36287 ft 433 kts 306°
2026-04-28 22:15 51.88989 7.09227 36287 ft 434 kts 306°
2026-04-28 22:16 51.92330 7.01095 36289 ft 434 kts 306°
2026-04-28 22:16 51.95664 6.92941 36285 ft 434 kts 306°
2026-04-28 22:17 51.98980 6.84765 36293 ft 434 kts 306°
2026-04-28 22:17 52.02291 6.76563 36296 ft 435 kts 306°
2026-04-28 22:18 52.05573 6.68306 36296 ft 435 kts 305°
2026-04-28 22:18 52.08810 6.59974 36300 ft 436 kts 304°
2026-04-28 22:19 52.12041 6.51621 36296 ft 436 kts 305°
2026-04-28 22:19 52.15278 6.43259 36302 ft 437 kts 305°
2026-04-28 22:20 52.18518 6.34887 36297 ft 437 kts 305°
2026-04-28 22:20 52.21757 6.26494 36299 ft 437 kts 305°
2026-04-28 22:21 52.24990 6.18084 36297 ft 438 kts 304°
2026-04-28 22:21 52.28216 6.09644 36298 ft 438 kts 304°
2026-04-28 22:22 52.31439 6.01183 36301 ft 439 kts 304°
2026-04-28 22:22 52.34640 5.92764 36317 ft 439 kts 305°
2026-04-28 22:23 52.37858 5.84271 36321 ft 439 kts 304°
2026-04-28 22:23 52.40012 5.78578 36319 ft 440 kts 305°